[[{"header":{"parameterUnit":"m.s-1","parameterCategory":1,"la1":30.2991,"la2":30.254,"lo1":-89.0895,"lo2":-89.0444,"dy":0.0017,"dx":0.0017,"nx":28,"ny":28,"refTime":"2024-04-15T03:00:00:Z","depth":0,"parameterNumber":2,"parameterNumberName":"U-component_of_WINDS"},"data":[0,0,0,0,0,0,0,0,0,0,0,0,0,0,0,0,0,0,0,0,0,0,0,0,0,0,0,0,0,0,0,0,0,0,0,0,0,0,0,0,0,0,0,0,0,0,0,0,0,0,0,0,0,0,0,0,0,0,-2.0048,-2.0049,0,-2.0112,-2.0113,-2.0113,-2.0104,-2.0103,-2.0102,-2.0101,-2.0165,-2.0168,-2.017,0,0,0,0,0,0,0,0,0,0,0,0,0,-1.9917,-1.9919,-2.0048,-2.0049,-2.005,-2.0112,-2.0113,-2.0113,-2.0104,-2.0103,-2.0102,-2.0101,-2.0164,-2.0167,-2.0171,0,0,0,0,0,0,0,0,0,0,0,0,0,-1.9976,-1.992,-2.0048,-2.0053,-2.0054,-2.0112,-2.0113,-2.0114,-2.0105,-2.0103,-2.0101,-2.01,-2.0163,-2.0167,-2.0171,-2.0228,0,0,-2.0184,-2.0185,0,0,0,0,0,0,0,0,-1.9973,-1.9981,-2.0051,-2.0052,-2.0054,-2.0098,-2.009,-2.0152,-2.0105,-2.0085,-2.0101,-2.0099,-2.0144,-2.015,-2.0165,-2.0231,-2.0234,-2.0184,-2.0186,-2.0188,-2.0189,0,0,0,0,0,0,0,-1.9969,-1.9978,-2.0073,-2.0052,-2.0054,-2.0051,-2.0058,-2.0102,-2.0123,-2.0087,-2.0086,-2.0094,-2.0145,-2.0161,-2.0167,-2.0235,-2.0184,-2.0187,-2.019,-2.0191,-2.035,-2.0351,0,0,0,0,0,0,-1.9964,-1.9975,-2.0071,-2.0075,-2.0009,-2.0055,-2.0062,-2.0086,-2.0122,-2.0126,-2.0095,-2.0093,-2.0155,-2.0162,-2.0169,-2.0237,-2.0188,-2.0192,-2.0194,-2.0348,-2.035,-2.0352,0,0,0,0,0,0,-1.9961,-1.9972,-2.0069,-2.0025,-2.0037,-2.0059,-2.0085,-2.0088,-2.0104,-2.0129,-2.0132,-2.0109,-2.0154,-2.0163,-2.0213,-2.0239,-2.0194,-2.0197,-2.0346,-2.0348,-2.0351,-2.0375,0,0,0,0,0,0,-1.9957,-1.9971,-1.9994,-2.0026,-2.0039,-2.0113,-2.0087,-2.009,-2.0112,-2.011,-2.0142,-2.0146,-2.0154,-2.0207,-2.0217,-2.0244,-2.0201,-2.0343,-2.0347,-2.035,-2.0372,-2.0378,-2.0383,0,0,0,0,0,-1.9953,-1.9998,-1.9995,-2.0007,-2.0068,-2.0114,-2.0122,-2.013,-2.0114,-2.0136,-2.0151,-2.0145,-2.0235,-2.0213,-2.0224,-2.0252,-2.0342,-2.0346,-2.035,-2.0369,-2.0377,-2.0383,0,0,0,0,0,0,-1.9969,-2.0002,-1.9999,-2.0056,-2.0083,-2.0113,-2.0141,-2.0138,-2.0169,-2.0166,-2.0174,-2.0182,-2.0232,-2.0247,-2.0222,-2.0309,-2.0286,-2.0292,-2.0297,-2.0304,-2.031,-2.0305,-2.0204,0,0,0,0,0,-1.9979,-2.0014,-2.0041,-2.0089,-2.0102,-2.0119,-2.014,-2.0144,-2.0171,-2.0182,-2.0201,-2.0227,-2.0261,-2.0284,-2.0317,-2.0374,-2.0381,-2.0399,-2.0405,-2.0409,-2.0415,-2.0445,-2.0454,-2.0365,-2.0365,-2.0365,0,0,-2.0,-2.0023,-2.0045,-2.0093,-2.0114,-2.0149,-2.0129,-2.0168,-2.0194,-2.0188,-2.0236,-2.0251,-2.0281,-2.0335,-2.036,-2.0349,-2.0441,-2.0414,-2.0418,-2.0421,-2.045,-2.0459,-2.0466,-2.0368,-2.0367,-2.0367,0,0,-2.0057,-2.0078,-2.012,-2.0141,-2.0173,-2.0184,-2.0194,-2.0224,-2.0234,-2.0283,-2.0278,-2.031,-2.0368,-2.039,-2.0408,-2.0472,-2.0467,-2.0483,-2.0513,-2.0542,-2.0549,-2.0556,-2.0578,-2.0586,-2.0488,-2.0488,-2.0488,0,-2.008,-2.0134,-2.0142,-2.0181,-2.0202,-2.0198,-2.024,-2.026,-2.0301,-2.0315,-2.0302,-2.0375,-2.0395,-2.0454,-2.0469,-2.0485,-2.0496,-2.0479,-2.0548,-2.0554,-2.056,-2.0581,-2.059,-2.049,-2.049,-2.0489,-2.0489,0,-2.016,-2.0198,-2.0227,-2.0267,-2.0291,-2.0331,-2.0345,-2.0368,-2.037,-2.0382,-2.0431,-2.0455,-2.0492,-2.0506,-2.0508,-2.0564,-2.0556,-2.0546,-2.0523,-2.057,-2.059,-2.0598,-2.0492,-2.0491,-2.0491,-2.0491,0,0,-2.023,-2.0272,-2.0283,-2.03,-2.0335,-2.0363,-2.0403,-2.044,-2.0459,-2.0487,-2.052,-2.057,-2.056,-2.0581,-2.0585,-2.0611,-2.0659,-2.0597,-2.0598,-2.0607,-2.0722,-2.073,-2.0739,-2.0656,-2.0658,-2.0659,-2.0719,0,-2.029,-2.0361,-2.0369,-2.0431,-2.0466,-2.0462,-2.0496,-2.052,-2.0532,-2.0563,-2.0576,-2.0611,-2.0595,-2.0608,-2.0633,-2.0648,-2.0683,-2.0644,-2.0686,-2.0688,-2.0679,-2.075,-2.0758,-2.0814,-2.0727,-2.0729,-2.073,0,-2.037,-2.04,-2.0466,-2.0495,-2.0509,-2.054,-2.0574,-2.0603,-2.063,-2.0637,-2.066,-2.066,-2.0701,-2.0676,-2.0731,-2.0705,-2.0723,-2.0732,-2.0735,-2.0739,-2.0712,-2.0755,-2.0832,-2.0841,-2.0742,-2.0741,-2.0741,0,-2.0414,-2.0471,-2.0518,-2.0533,-2.0567,-2.0589,-2.0604,-2.063,-2.0651,-2.068,-2.0693,-2.0727,-2.0745,-2.077,-2.0779,-2.0761,-2.0833,-2.081,-2.084,-2.0839,-2.0855,-2.0854,-2.0936,-2.0867,-2.0867,-2.0867,-2.0867,0,-2.048,-2.0521,-2.0538,-2.0566,-2.0611,-2.0619,-2.0663,-2.0678,-2.07,-2.0731,-2.073,-2.0758,-2.0769,-2.0799,-2.0807,-2.085,-2.0859,-2.0865,-2.0866,-2.0865,-2.0864,-2.0877,-2.0873,-2.0869,-2.0869,-2.0868,-2.0868,0,-2.0537,-2.055,-2.06,-2.0629,-2.0637,-2.0669,-2.0692,-2.072,-2.0731,-2.077,-2.078,-2.0797,-2.0833,-2.0844,-2.0887,-2.0892,-2.0943,-2.0942,-2.0934,-2.0935,-2.0963,-2.096,-2.1055,-2.1068,-2.0991,-2.0992,-2.0993,0,-2.0579,-2.061,-2.0641,-2.0662,-2.0678,-2.0711,-2.0732,-2.0741,-2.0763,-2.0796,-2.0819,-2.0854,-2.0883,-2.094,-2.0956,-2.0989,-2.0988,-2.1019,-2.0992,-2.099,-2.0988,-2.0985,-2.0988,-2.1024,-2.1024,-2.1025,-2.1026,0,-2.0651,-2.0655,-2.0687,-2.072,-2.0745,-2.0772,-2.0797,-2.0814,-2.0826,-2.0851,-2.0887,-2.091,-2.0953,-2.0988,-2.1021,-2.1036,-2.1033,-2.1034,-2.1042,-2.1041,-2.1035,-2.1038,-2.0947,-2.1031,-2.1031,-2.103,-2.103,-2.103,-2.0701,-2.0728,-2.0754,-2.0789,-2.0809,-2.0832,-2.0859,-2.0873,-2.0904,-2.094,-2.0943,-2.0983,-2.1007,-2.1052,-2.1068,-2.1098,-2.1089,-2.1102,-2.1105,-2.1108,-2.111,-2.1031,-2.1104,-2.1104,-2.1104,-2.1104,-2.1104,0,-2.0773,-2.079,-2.0821,-2.0856,-2.0883,-2.0878,-2.0905,-2.0928,-2.0962,-2.0986,-2.1014,-2.1055,-2.1089,-2.1107,-2.1141,-2.1161,-2.116,-2.1169,-2.1168,-2.1171,-2.1116,-2.1105,-2.1169,-2.1169,-2.1169,-2.1169,-2.1169,-2.1169,-2.0814,-2.0859,-2.0867,-2.0921,-2.0937,-2.0976,-2.0992,-2.1013,-2.1032,-2.1078,-2.1106,-2.1118,-2.1139,-2.1174,-2.1204,-2.1208,-2.122,-2.123,-2.1234,-2.1182,-2.1175,-2.1169,-2.1159,-2.1233,-2.1233,-2.1286,-2.1287,-2.1287]},{"header":{"parameterUnit":"m.s-1","parameterCategory":1,"la1":30.2991,"la2":30.254,"lo1":-89.0895,"lo2":-89.0444,"dy":0.0017,"dx":0.0017,"nx":28,"ny":28,"refTime":"2024-04-15T03:00:00:Z","depth":0,"parameterNumber":3,"parameterNumberName":"V-component_of_WINDS"},"data":[0,0,0,0,0,0,0,0,0,0,0,0,0,0,0,0,0,0,0,0,0,0,0,0,0,0,0,0,0,0,0,0,0,0,0,0,0,0,0,0,0,0,0,0,0,0,0,0,0,0,0,0,0,0,0,0,0,0,3.7352,3.7353,0,3.7464,3.7465,3.7467,3.7473,3.7472,3.7471,3.7469,3.7584,3.7588,3.7593,0,0,0,0,0,0,0,0,0,0,0,0,0,3.7144,3.7148,3.7352,3.7353,3.7354,3.7464,3.7465,3.7467,3.7473,3.7472,3.747,3.7469,3.7583,3.7588,3.7593,0,0,0,0,0,0,0,0,0,0,0,0,0,3.7243,3.7149,3.7351,3.7371,3.7374,3.7464,3.7465,3.7467,3.7474,3.7472,3.747,3.7468,3.7581,3.7587,3.7594,3.7671,0,0,3.7613,3.7616,0,0,0,0,0,0,0,0,3.7237,3.7251,3.7367,3.737,3.7373,3.7453,3.7434,3.7536,3.7474,3.7436,3.7469,3.7467,3.7542,3.7551,3.7577,3.7677,3.7682,3.7614,3.7618,3.762,3.7622,0,0,0,0,0,0,0,3.7231,3.7246,3.7396,3.7368,3.7372,3.7374,3.7386,3.7454,3.7498,3.7439,3.744,3.7453,3.7543,3.7571,3.7579,3.7683,3.7613,3.7619,3.7623,3.7626,3.7855,3.7857,0,0,0,0,0,0,3.722,3.724,3.7393,3.7399,3.7299,3.738,3.7393,3.7429,3.7498,3.7506,3.7455,3.7453,3.7561,3.7572,3.7584,3.7681,3.762,3.7626,3.763,3.7853,3.7856,3.7858,0,0,0,0,0,0,3.7215,3.7233,3.7388,3.732,3.734,3.7385,3.7426,3.7432,3.746,3.7509,3.7517,3.7474,3.756,3.7575,3.765,3.7685,3.7629,3.7635,3.785,3.7854,3.7857,3.7875,0,0,0,0,0,0,3.7209,3.7232,3.7261,3.7321,3.7344,3.7452,3.7428,3.7436,3.7471,3.7469,3.753,3.7538,3.7559,3.7641,3.7656,3.7692,3.764,3.7847,3.7852,3.7856,3.7871,3.7878,3.7884,0,0,0,0,0,3.7202,3.7261,3.7263,3.7281,3.7382,3.7454,3.7467,3.7491,3.7473,3.7504,3.7536,3.7536,3.7678,3.7648,3.7666,3.7705,3.7845,3.7851,3.7856,3.7868,3.7877,3.7884,0,0,0,0,0,0,3.7204,3.7269,3.7272,3.7352,3.7398,3.7455,3.7494,3.7499,3.755,3.7547,3.7574,3.7588,3.7663,3.7691,3.7656,3.7785,3.776,3.7769,3.7763,3.7772,3.7778,3.777,3.7645,0,0,0,0,0,3.7214,3.7268,3.7322,3.7388,3.741,3.7449,3.7481,3.7495,3.7544,3.7563,3.7601,3.7648,3.7703,3.7739,3.7793,3.7875,3.7889,3.7911,3.7917,3.7922,3.793,3.7978,3.7988,3.7875,3.7875,3.7875,0,0,3.7235,3.7278,3.7309,3.7389,3.7426,3.7482,3.7465,3.7523,3.7565,3.7572,3.7646,3.7675,3.773,3.7809,3.7846,3.7835,3.7964,3.7929,3.7933,3.7938,3.7984,3.7995,3.8004,3.7878,3.7878,3.7877,0,0,3.7302,3.7339,3.7399,3.7436,3.7493,3.7518,3.7533,3.759,3.761,3.7685,3.7692,3.7742,3.7836,3.7875,3.7907,3.7991,3.7993,3.8008,3.8042,3.8088,3.8097,3.8105,3.8136,3.8147,3.8015,3.8015,3.8015,0,3.7321,3.7405,3.7429,3.7488,3.7524,3.7533,3.7594,3.7629,3.7701,3.7725,3.7712,3.7832,3.7869,3.7959,3.798,3.8005,3.8023,3.8001,3.8094,3.8102,3.811,3.814,3.8152,3.8016,3.8016,3.8016,3.8016,0,3.7426,3.7484,3.7526,3.7595,3.7635,3.7695,3.7729,3.7766,3.7777,3.7804,3.7881,3.7926,3.799,3.8012,3.8023,3.8105,3.8096,3.8088,3.8064,3.8122,3.8151,3.8162,3.8018,3.8018,3.8017,3.8017,0,0,3.7497,3.758,3.7595,3.7627,3.7691,3.7737,3.7797,3.786,3.7893,3.7942,3.7995,3.8075,3.8069,3.8105,3.8121,3.8161,3.8227,3.8148,3.815,3.8162,3.8321,3.8327,3.834,3.8228,3.8231,3.8232,3.8317,0,3.7572,3.7681,3.7705,3.7799,3.7854,3.7864,3.7917,3.7962,3.799,3.804,3.807,3.8128,3.8114,3.8136,3.8177,3.821,3.8259,3.8204,3.8278,3.8281,3.8266,3.8355,3.8362,3.8439,3.8328,3.833,3.8331,0,3.7674,3.7726,3.7826,3.7884,3.7908,3.7955,3.8016,3.8064,3.8116,3.8133,3.8175,3.8187,3.8252,3.8224,3.8314,3.8277,3.8309,3.833,3.8333,3.8342,3.831,3.8367,3.8464,3.8477,3.8349,3.8348,3.8346,0,3.7718,3.7813,3.7885,3.7912,3.7982,3.8015,3.8046,3.8096,3.8133,3.8185,3.821,3.8269,3.8302,3.8348,3.8377,3.8354,3.8465,3.844,3.8482,3.8482,3.8506,3.8504,3.8611,3.8525,3.8524,3.8524,3.8524,0,3.78,3.786,3.7906,3.7951,3.802,3.8047,3.8115,3.8145,3.819,3.8241,3.8253,3.8301,3.8335,3.8388,3.841,3.8483,3.8497,3.8513,3.8519,3.8513,3.8511,3.8535,3.8531,3.8527,3.8527,3.8526,3.8525,0,3.786,3.7893,3.7973,3.8032,3.8049,3.8097,3.8148,3.8192,3.822,3.8285,3.8302,3.8346,3.8409,3.8441,3.852,3.8535,3.8617,3.8618,3.8599,3.8602,3.8643,3.8639,3.877,3.8789,3.8689,3.869,3.869,0,3.7911,3.7958,3.8023,3.8058,3.8089,3.8146,3.8184,3.8213,3.8252,3.8316,3.8353,3.8417,3.847,3.857,3.8609,3.867,3.8674,3.8715,3.8683,3.8676,3.8676,3.8674,3.8679,3.8721,3.8722,3.8723,3.8724,0,3.7997,3.8012,3.8066,3.8126,3.8171,3.822,3.8269,3.8297,3.8334,3.8378,3.8443,3.8484,3.8565,3.8629,3.8693,3.8724,3.8731,3.8733,3.8747,3.8742,3.873,3.8738,3.8616,3.873,3.873,3.8729,3.8729,3.8729,3.8056,3.8099,3.8151,3.8212,3.8251,3.8297,3.8342,3.8375,3.843,3.8499,3.8512,3.8582,3.8634,3.8721,3.8755,3.881,3.8801,3.882,3.8825,3.883,3.8833,3.872,3.8822,3.8821,3.8821,3.8821,3.8821,0,3.8144,3.8179,3.8234,3.8302,3.835,3.8351,3.8406,3.8446,3.8507,3.8555,3.8607,3.8683,3.8745,3.879,3.8853,3.8889,3.8894,3.8905,3.8903,3.8911,3.8836,3.8819,3.89,3.89,3.89,3.89,3.89,3.89,3.8196,3.8269,3.829,3.8384,3.8418,3.8487,3.8518,3.856,3.8599,3.8683,3.8735,3.8764,3.8811,3.8879,3.8936,3.8948,3.8971,3.8983,3.8995,3.8924,3.8916,3.8908,3.8892,3.8987,3.8987,3.9065,3.9066,3.9066]}]]